Regional Weather Roundup
Issued by NWS Green Bay, WI

Home | Current Version | Previous Version | Graphics & Text | Print | Product List | Glossary Off
Versions: 1 2 3 4 5 6 7 8 9 10 11 12 13 14 15 16 17 18 19 20 21 22 23 24 25 26 27 28 29 30 31 32 33 34 35 36 37 38 39 40 41 42 43 44 45 46 47 48 49 50

000
ASUS43 KGRB 040511
RWRGRB

NORTH-CENTRAL AND NORTHEAST WISCONSIN REGIONAL WEATHER ROUNDUP
NATIONAL WEATHER SERVICE GREEN BAY WI
1200 AM CDT FRI SEP 04 2015

WIZ005-009-010>012-018-019-040600-
NORTH CENTRAL WISCONSIN

CITY           SKY/WX    TMP DP  RH WIND       PRES   REMARKS
IRONWOOD       CLEAR     61  61 100 CALM      30.00R
MANITOWISH WTR FOG       58  58 100 CALM      30.04R VSB 1/2
ARBOR VITAE    CLEAR     62  61  96 CALM      30.04R
EAGLE RIVER    CLEAR     62  62 100 CALM      30.04S
LAND O LAKES   CLEAR     60  60  99 CALM      30.06S
RHINELANDER    CLEAR     63  62  97 CALM      30.05R
PHILLIPS       CLEAR     62  62 100 CALM      30.02S
ANTIGO         CLEAR     63  61  94 E3        30.04R
TOMAHAWK       PTCLDY    57  56  97 CALM      30.04R FOG
MERRILL        PTCLDY    58  58 100 E3        30.03R FOG
$$

WIZ013-073-040600-
NORTHEAST WISCONSIN

CITY           SKY/WX    TMP DP  RH WIND       PRES   REMARKS
IRON MOUNTAIN  CLEAR     62  59  90 NW3       30.02R
MARINETTE      CLEAR     64  61  88 N3        29.98R
OCONTO         CLEAR     62  62 100 CALM      29.98S
$$

WIZ017-030-035>037-045-040600-
CENTRAL WISCONSIN

CITY           SKY/WX    TMP DP  RH WIND       PRES   REMARKS
MEDFORD        FOG       60  60 100 CALM      30.02S VSB 1/4
WAUSAU         CLEAR     63  62  97 CALM      30.00R
MOSINEE        CLEAR     64  63  94 NE5       30.02R
MARSHFIELD     CLEAR     65  61  87 E3        30.00S
WISC RAPIDS    CLEAR     64  62  93 SW3       30.00S
STEVENS POINT  CLEAR     59  59  99 CALM      30.01R
WAUPACA        FOG       64  63  97 CALM      30.00R VSB 1
SHAWANO        NOT AVBL
CLINTONVILLE   FOG       63  63 100 CALM      29.99S VSB 1
WAUTOMA        CLEAR     61  61 100 CALM      29.99R
$$

WIZ038-039-048-051-040600-
FOX VALLEY

CITY           SKY/WX    TMP DP  RH WIND       PRES   REMARKS
NWS GREEN BAY  CLEAR     63  61  93 CALM      29.98R
APPLETON       CLEAR     63  63 100 N5        29.97S
OSHKOSH        CLEAR     63  61  93 W3        29.97S
FOND DU LAC    CLEAR     64  63  96 CALM      29.97S
$$

WIZ022-050-052-040600-
EAST CENTRAL WISCONSIN

CITY           SKY/WX    TMP DP  RH WIND       PRES   REMARKS
EPHRAIM        FAIR      65  64  97 NE5       29.97R
STURGEON BAY   PTCLDY    64  63  94 NE5       30.00R
MANITOWOC      CLEAR     64  63  96 MISG      29.96S FOG
SHEBOYGAN      CLEAR     62  61  96 CALM      29.96S FOG
$$

LMZ563-521-522-541>543-040600-
LAKESHORE

STATION/POSITION TIME  TEMP    WIND        PRES    VSBY  WAVE
                       AIR SEA DIR/SP/G                  HT/PER
                 (UTC) (F)     (DEG/KT/KT) (MB)    (MI)  (FT/S)
SHEBOYGAN LKSHOR 0500   66     330/  6/  6 1014.5R
KEWAUNEE LKSHORE 0400   67      10/  8/ 11 1013.4F
NORTHPORT PIER   0400   68      40/  7/ 10 1014.9S
N MID LAKE BUOY  0450   68 66   60/ 10/ 12 1014.5R         1/ 4
S GREEN BAY BUOY 0500   67 66   20/ 10/ 14 1016.4R
SISTER BAY LKSHO 0441   68      20/  5/  9   N/A
CHAMBERS ISLAND  0400   65      10/  7/  8 1014.9S
MENOMINEE LKSHOR 0400   66     360/  5     1013.8R
$$



USA.gov is the U.S. government's official web portal to all federal, state and local government web resources and services.